Weather in Lipetskoe

Ukraine / Odesa District     47°44′11″N   29°42′55″E
temp.,
°C
wind,
m/s
gust,
m/s
humid.,
%
clouds,
%
prec.,
mm/h
press.,
hPa
HPBL,
m
22 april, thu
thu2200:00+8sw34705 0.0 101746
03:00+8ssw35765 0.0 101769
06:00+7ssw34812 0.0 101847
09:00+12ssw47645 0.0 1019449
12:00+16s67494 0.1 10181835
15:00+18ssw5640100 0.2 10172591
18:00+17ssw464756 0.0 10161025
21:00+12sse6107155 0.0 1017206
23 april, fri
fri2300:00+10s5127524 0.1 1016273
03:00+9s512835 0.1 1015257
06:00+7wsw489217 0.0 1016186
09:00+9nnw4585100 0.0 1017466
12:00+12nnw4467100 0.0 10171067
15:00+7nnw7881100 0.1 1018681
18:00+5n368897 1.9 1019538
21:00+5sw22895 2.0 102013
24 april, sat
sat2400:00+4w48892 0.0 1020172
03:00+3wnw37815 0.0 1020122
06:00+2w310875 0.0 1020230
09:00+6wnw91369100 0.0 10211355
12:00+8nw912415 0.0 10222103
15:00+10nw81135100 0.0 10222659
18:00+9nw610415 0.0 10222427
21:00+5wnw22585 0.0 102319
25 april, sun
sun2500:00+4w22626 0.0 102416
03:00+3sw226289 0.0 102321
06:00+2ssw336379 0.0 102231
09:00+9ssw584611 0.0 1021616
12:00+12ssw795197 0.0 10201800
15:00+13wsw685378 1.3 10181651
18:00+12nw565343 0.2 10181402
21:00+8nnw6869100 0.2 1020494
26 april, mon
mon2600:00+6nnw3769100 0.5 1021755
03:00+2nw36745 0.5 1021131
06:00+1nw37750 0.0 1021130
09:00+6wnw57530 0.0 1021983
12:00+10wnw6841100 0.0 10212419
15:00+11wnw71038100 0.0 10192620
18:00+10nw6104398 0.0 10192172
21:00+6nnw3653100 0.0 1020116